This is the latest recevied weather packets stored in our database for station/object AD8BV. If no packets are shown the sender has not sent any weather packets the latest 10 day(s).
| Time | Temp. | Humidity | Pressure | Rain* | Wind** | Luminosity | Snow |
|---|---|---|---|---|---|---|---|
| 1777317321 | 19.44° C | 65% | 1014.3 hPa | 0 mm | - | 86 W/m² | - |
| 1777317015 | 19.44° C | 64% | 1014.5 hPa | 0 mm | - | 120 W/m² | - |
| 1777316714 | 19.44° C | 63% | 1014.3 hPa | 0 mm | - | 152 W/m² | - |
| 1777316410 | 20° C | 64% | 1014.2 hPa | 0 mm | - | 174 W/m² | - |
| 1777316107 | 20° C | 62% | 1014.5 hPa | 0 mm | - | 196 W/m² | - |
| 1777315805 | 20° C | 63% | 1014.8 hPa | 0 mm | - | 212 W/m² | - |
| 1777315504 | 20° C | 63% | 1014.5 hPa | 0 mm | - | 226 W/m² | - |
| 1777315201 | 20° C | 60% | 1014.6 hPa | 0 mm | - | 244 W/m² | - |
| 1777314897 | 20.56° C | 60% | 1014.6 hPa | 0 mm | - | 275 W/m² | - |
| 1777314593 | 20.56° C | 60% | 1014.5 hPa | 0 mm | - | 291 W/m² | - |
| 1777314290 | 20.56° C | 61% | 1014.5 hPa | 0 mm | - | 292 W/m² | - |
| 1777313987 | 20.56° C | 59% | 1014.7 hPa | 0 mm | - | 290 W/m² | - |
| 1777313684 | 20.56° C | 60% | 1014.4 hPa | 0 mm | - | 308 W/m² | - |
| 1777313383 | 20.56° C | 59% | 1014.5 hPa | 0 mm | - | 326 W/m² | - |
| 1777313079 | 20.56° C | 59% | 1014.8 hPa | 0 mm | - | 335 W/m² | - |
| 1777312774 | 20.56° C | 56% | 1015 hPa | 0 mm | - | 358 W/m² | - |
| 1777312471 | 20.56° C | 59% | 1015 hPa | 0 mm | - | 408 W/m² | - |
| 1777312169 | 20.56° C | 57% | 1014.9 hPa | 0 mm | - | 431 W/m² | - |
| 1777311866 | 20.56° C | 58% | 1014.9 hPa | 0 mm | - | 478 W/m² | - |
| 1777311563 | 20° C | 60% | 1015.3 hPa | 0 mm | - | 485 W/m² | - |
| 1777311261 | 20.56° C | 60% | 1015.3 hPa | 0 mm | - | 422 W/m² | - |
| 1777310958 | 20° C | 62% | 1015.5 hPa | 0 mm | - | 404 W/m² | - |
| 1777310656 | 20.56° C | 59% | 1015.9 hPa | 0 mm | - | 438 W/m² | - |
| 1777310353 | 20° C | 61% | 1016 hPa | 0 mm | - | 406 W/m² | - |
| 1777310049 | 20.56° C | 60% | 1016 hPa | 0 mm | - | 329 W/m² | - |
* Rain latest hour (hover to see other rain measurements)
** Current wind speed in m/s (hover to see current wind gust speed)